sat.trackr.live / text

‹ back to catalog

STARLINK-32819

NORAD 62995 · 2025-031Q

PAYLOAD ACTIVE UNKNOWN

§ Identity

Operator
Country
US
Launch date
2025-02-11
Launch site
AFETR
Launch vehicle
Mass (kg)
RCS (m²)

Purposes: comms

External: N2YO · Heavens-Above · Gunter

§ Orbital elements

Epoch: 2026-09-21T07:28:12.279072Z

Period
94.27 min
Inclination
43.0014°
Eccentricity
0.0001239
Mean motion
15.27584849 rev/d
Perigee alt
482.2 km
Apogee alt
483.9 km
Semi-major
6,861.2 km
B*
3.7907e-4
RAAN
118.5125°
Arg perigee
265.4689°
Mean anomaly
94.6021°
Rev number
9,101

§ Raw data

STARLINK-328191 62995U 25031Q   26264.31125323  .00010185  00000+0  37907-3 0  99952 62995  43.0014 118.5125 0001239 265.4689  94.6021 15.27584849 91019

JSON: /api/v1/satellites/62995 · /tle

For live sub-satellite position, see the globe view (requires WebGL).

§ Visibility from observer

Set your observer location to see the next 7 days of passes ≥ 10°. The values pass through the URL so the page stays shareable.

No JS? Fill the form by hand. The geolocation button needs JavaScript.